Torna al catalogo

STARLINK-33834

AttivoComunicazioniVLEO
NORAD 63586·PAYLOAD·🇺🇸 United States

Lanciato Apr 14, 2025 da Cape Canaveral Space Force Station

Loading…

Prossimi Passaggi (prossime 24 ore)

TLE

AggiornatoSource: CelesTrak SupGP

Epoca: Sep 14, 2026, 22:33 UTC

1 63586C 25076T   26257.94006944 -.00022108  00000+0 -80066-3 0  2570
2 63586  43.0040 332.9362 0001833 272.5765  79.7572 15.27592073    17

Traccia STARLINK-33834 in tempo reale con AllMySat

Download on the App Store